This is the latest recevied weather packets stored in our database for station/object EA1CZ-10. If no packets are shown the sender has not sent any weather packets the latest 10 day(s).
| Time | Temp. | Humidity | Pressure | Rain* | Wind** | Luminosity | Snow |
|---|---|---|---|---|---|---|---|
| 1777973686 | 6.11° C | 70% | 1027.7 hPa | - | - | - | - |
| 1777971886 | 5.56° C | 71% | 1027.7 hPa | - | - | - | - |
| 1777970086 | 6.11° C | 70% | 1027.6 hPa | - | - | - | - |
| 1777968286 | 3.33° C | 72% | 1027.5 hPa | - | - | - | - |
| 1777966486 | 6.11° C | 71% | 1027.2 hPa | - | - | - | - |
| 1777964686 | 4.44° C | 71% | 1027.3 hPa | - | - | - | - |
| 1777962886 | 1.11° C | 71% | 1027.4 hPa | - | - | - | - |
| 1777961086 | 2.78° C | 72% | 1027.1 hPa | - | - | - | - |
| 1777959286 | 2.22° C | 71% | 1027.1 hPa | - | - | - | - |
| 1777957486 | 1.11° C | 72% | 1026.9 hPa | - | - | - | - |
| 1777955686 | 2.78° C | 71% | 1026.9 hPa | - | - | - | - |
| 1777953885 | 3.33° C | 70% | 1027.1 hPa | - | - | - | - |
| 1777952085 | 3.33° C | 71% | 1027.2 hPa | - | - | - | - |
| 1777950285 | 2.22° C | 71% | 1027 hPa | - | - | - | - |
| 1777948485 | 1.11° C | 71% | 1027.3 hPa | - | - | - | - |
| 1777946685 | 2.22° C | 71% | 1027.4 hPa | - | - | - | - |
| 1777944885 | 3.33° C | 71% | 1027.4 hPa | - | - | - | - |
| 1777943085 | 4.44° C | 71% | 1027.7 hPa | - | - | - | - |
| 1777941284 | 3.89° C | 70% | 1027.8 hPa | - | - | - | - |
| 1777939484 | 3.33° C | 71% | 1027.6 hPa | - | - | - | - |
| 1777937684 | 2.78° C | 71% | 1028 hPa | - | - | - | - |
| 1777935884 | 3.89° C | 69% | 1028 hPa | - | - | - | - |
| 1777934084 | 6.11° C | 70% | 1028.2 hPa | - | - | - | - |
| 1777932284 | 6.67° C | 69% | 1028.3 hPa | - | - | - | - |
| 1777930484 | 7.22° C | 69% | 1028.4 hPa | - | - | - | - |
* Rain since midnight (hover to see other rain measurements)
** Current wind speed in m/s (hover to see current wind gust speed)